Regional Weather Roundup
Issued by NWS

Home | Current Version | Previous Version | Text Only | Print | Product List | Glossary On
Versions: 1 2 3 4 5 6 7 8 9 10 11 12 13 14 15 16 17 18 19 20 21 22 23 24 25 26 27 28 29 30 31 32 33 34 35 36 37 38 39 40 41 42 43 44 45 46 47 48 49 50
000
ASUS44 KMEG 011910
RWRTN
TENNESSEE HOURLY STATE WEATHER ROUNDUP
NATIONAL WEATHER SERVICE MEMPHIS TN
200 PM CDT SUN MAY 01 2016

TNZ002-004-019-021-049-052-054-088>092-012000-
WEST TENNESSEE

CITY           SKY/WX    TMP DP  RH WIND       PRES   REMARKS
MEMPHIS INTL   PTSUNNY   79  67  66 S12       29.93S
NWS MEMPHIS      N/A     81 N/A N/A MISG        N/A
JACKSON        PTSUNNY   81  65  58 S9        29.91F
DYERSBURG      CLOUDY    75  68  78 NW8G18      N/A
UNION CITY     PTSUNNY   79  68  69 W10       29.91S
LEXINGTON      MOSUNNY   81  66  61 S9        29.93F
$$

TNZ008-025-027-028-033-062-065-066-012000-
NORTH MIDDLE TENNESSEE

CITY           SKY/WX    TMP DP  RH WIND       PRES   REMARKS
NASHVILLE      PTSUNNY   81  63  54 SW9       29.95F
CLARKSVILLE    PTSUNNY   80  65  59 S7        29.92F
SMYRNA         PTSUNNY   80  64  58 SW9       29.97S
COOKEVILLE     MOSUNNY   81  66  61 SW8       29.97S
CROSSVILLE     PTSUNNY   78  60  53 VRB6      30.02S
$$

TNZ061-075-076-078-094-096-097-012000-
SOUTH MIDDLE TENNESSEE

CITY           SKY/WX    TMP DP  RH WIND       PRES   REMARKS
FAYETTEVILLE   PTSUNNY   77  64  65 VRB6G12   29.99F
TULLAHOMA      PTSUNNY   75  64  69 S10       30.00F
WINCHESTER     PTSUNNY   79  64  61 SW9       30.00F
MCMINNVILLE    MOSUNNY   79  64  61 SW10      29.99S
COLUMBIA       MOSUNNY   79  72  78 S10       29.95F
SHELBYVILLE    PTSUNNY   81  66  61 SW14      29.98F
$$

TNZ017-018-042-046-047-012000-
NORTHEAST TENNESSEE

CITY           SKY/WX    TMP DP  RH WIND       PRES   REMARKS
TRI CITIES     MOSUNNY   75  62  64 SW5       30.02F
$$

TNZ012-013-036-069-073-074-012000-
CENTRAL EAST TENNESSEE

CITY           SKY/WX    TMP DP  RH WIND       PRES   REMARKS
KNOXVILLE      CLOUDY    80  64  58 SW14      29.99R
OAK RIDGE      MOSUNNY   81  62  52 VRB6      29.99S
GATLINBURG     CLEAR     82  63  51 W12       29.98S
MORRISTOWN     PTCLDY    79  66  65 SW9       29.99F
$$

TNZ083-085-099-012000-
SOUTHEAST TENNESSEE

CITY           SKY/WX    TMP DP  RH WIND       PRES   REMARKS
CHATTANOOGA    CLOUDY    82  64  54 SW12      29.99S
$$

SKY/WX REPORTED AS FAIR MEANS FEW OR NO CLOUDS BELOW
12 THOUSAND FEET.




USA.gov is the U.S. government's official web portal to all federal, state and local government web resources and services.